AirNav   Bose ProFlight Series 2 Headset
 
 1188 users online  

FD43 Summer Lakes Seaplane Base
Orlando, Florida, USA

GOING TO ORLANDO?


FAA INFORMATION EFFECTIVE 02 JANUARY 2020

Location

FAA Identifier: FD43
Lat/Long: 28-31-39.0000N 081-28-51.0000W
28-31.650000N 081-28.850000W
28.5275000,-81.4808333
(estimated)
Elevation: 70 ft. / 21 m (estimated)
From city: 4 miles W of ORLANDO, FL
Time zone: UTC -5 (UTC -4 during Daylight Saving Time)
Zip code: 32835

Seaplane Base Operations

Seaplane Base use: Private use. Permission required prior to landing
Activation date: 08/2017
Control tower: no
ARTCC: JACKSONVILLE CENTER
FSS: SAINT PETERSBURG FLIGHT SERVICE STATION
Attendance: 
Wind indicator: yes
Segmented circle: no

Seaplane Base Communications

WX ASOS at ORL (8 nm E): PHONE 407-658-6753
WX ASOS at MCO (11 nm SE): PHONE 407-855-5235
WX AWOS-3PT at ISM (14 nm S): 128.775 (407-847-0533)
WX ASOS at SFB (20 nm NE): PHONE 407-321-9384

Nearby radio navigation aids

VOR radial/distance  VOR name  Freq  Var
ORLr263/7.7ORLANDO VORTAC112.2000E

Seaplane Base Services

Runway Information

Runway 16W/34W

Dimensions: 2993 x 100 ft. / 912 x 30 m
Surface: water
RUNWAY 16W  RUNWAY 34W
Traffic pattern: leftleft

Seaplane Base Ownership and Management from official FAA records

Ownership: Privately-owned
Owner: DAN CONNOLLY
7520 SUMMER LAKES CT
ORLANDO, FL 32835
Phone 407-230-5682
Manager: DAN CONNOLLY
7520 SUMMER LAKES CT
ORLANDO, FL 32835
Phone 407-230-5682

Seaplane Base Operational Statistics

Aircraft based on the field: 1
Single engine airplanes: 1
    

Additional Remarks

FOR CD CTC ORLANDO APCH AT 407-852-7553.

Instrument Procedures

There are no published instrument procedures at FD43.

Some nearby airports with instrument procedures:

KORL - Executive Airport (8 nm E)
KMCO - Orlando International Airport (11 nm SE)
X04 - Orlando Apopka Airport (12 nm NW)
KISM - Kissimmee Gateway Airport (14 nm S)
KSFB - Orlando Sanford International Airport (20 nm NE)
 
Loc | Ops | Rwys | IFR | FBO | Links
Com | Nav | Svcs | Stats | Notes
Aerial photo
No photo
 
Airport distance calculator
Flying to Summer Lakes Seaplane Base? Find the distance to fly.

From to FD43

Sunrise and sunset
Times for 26-Jan-2020
 Local
(UTC-5)
 Zulu
(UTC)
Morning civil twilight06:5311:53
Sunrise07:1812:18
Sunset17:5922:59
Evening civil twilight18:2423:24

Current date and time
Zulu (UTC)  26-Jan-2020 19:39:53
Local (UTC-5)  26-Jan-2020 14:39:53
 
METAR
KORL 
8nm E 
261853Z VRB05KT 10SM CLR 19/03 A3007 RMK AO2 SLP185 T01890028
KMCO 
10nm SE 
261853Z 28005KT 10SM BKN250 18/03 A3007 RMK AO2 SLP180 T01830028
KISM 
15nm S 
261856Z 01005KT 10SM CLR 19/01 A3007 RMK AO2 SLP184 T01890011
KSFB 
20nm NE 
261853Z VRB06KT 10SM CLR 19/03 A3006 RMK AO2 SLP180 T01940033
TAF
KMCO 
10nm SE 
261721Z 2618/2724 34006KT P6SM SCT250 FM270000 04004KT P6SM BKN150 FM270300 VRB03KT P6SM OVC080 FM271800 25004KT P6SM OVC060
KISM 
15nm S 
261721Z 2618/2718 34005KT P6SM SCT250 FM270000 VRB04KT P6SM BKN150 FM270300 VRB03KT P6SM OVC080
KSFB 
20nm NE 
261721Z 2618/2718 33006KT P6SM SCT250 FM270000 04004KT P6SM BKN150 FM270300 VRB03KT P6SM OVC080
NOTAMs
Click for the latest NOTAMs
NOTAMs are issued by the DoD/FAA and will open in a separate window not controlled by AirNav.

 

 
 

Would you like to see your business listed on this page?

 If your business provides an interesting product or service to pilots, flight crews, aircraft, or users of the Summer Lakes Seaplane Base, you should consider listing it here.  To start the listing process, click on the button below
 
Add a business
 

Other Pages about Summer Lakes Seaplane Base

Update a link
 
Copyright © AirNav, LLC. All rights reserved. Privacy Policy  Contact